Meteo pe oră la Abaza

Astăzi, 3 August, Marţi

Timp Temperatura Precipitaţii Vânt Presiune Umiditate
00:00 +17°C° 0 mm 2 m/s 714 mmHg 75%
01:00 +16°C° 0.1 mm 2 m/s 714 mmHg 78%
02:00 +15°C° 0.1 mm 2 m/s 714 mmHg 81%
03:00 +15°C° 0.1 mm 2 m/s 714 mmHg 84%
04:00 +15°C° 0.2 mm 2 m/s 714 mmHg 85%
05:00 +16°C° 0.2 mm 2 m/s 714 mmHg 85%
06:00 +16°C° 0 mm 1 m/s 714 mmHg 87%
07:00 +20°C° 0.1 mm 1 m/s 714 mmHg 76%
08:00 +23°C° 0.1 mm 1 m/s 715 mmHg 65%
09:00 +26°C° 0.1 mm 1 m/s 715 mmHg 54%
10:00 +27°C° 0 mm 1 m/s 715 mmHg 49%
11:00 +28°C° 0 mm 2 m/s 714 mmHg 44%
12:00 +30°C° 0 mm 2 m/s 714 mmHg 38%
13:00 +29°C° 0 mm 2 m/s 714 mmHg 43%
14:00 +27°C° 0 mm 2 m/s 714 mmHg 48%
15:00 +26°C° 0 mm 2 m/s 714 mmHg 54%
16:00 +25°C° 0.1 mm 2 m/s 715 mmHg 61%
17:00 +23°C° 0.1 mm 1 m/s 715 mmHg 68%
18:00 +22°C° 0.1 mm 1 m/s 715 mmHg 76%
19:00 +21°C° 0.2 mm 1 m/s 715 mmHg 81%
20:00 +19°C° 0.2 mm 1 m/s 715 mmHg 86%
21:00 +17°C° 0.2 mm 2 m/s 716 mmHg 92%
22:00 +16°C° 0 mm 2 m/s 715 mmHg 92%
23:00 +16°C° 0 mm 1 m/s 715 mmHg 92%

Mâine, 4 August, Miercuri

Timp Temperatura Precipitaţii Vânt Presiune Umiditate
00:00 +16°C° 0 mm 1 m/s 715 mmHg 92%
01:00 +15°C° 0 mm 1 m/s 715 mmHg 92%
02:00 +15°C° 0 mm 1 m/s 715 mmHg 92%
03:00 +15°C° 0 mm 1 m/s 715 mmHg 92%
04:00 +15°C° 0 mm 1 m/s 715 mmHg 91%
05:00 +16°C° 0 mm 1 m/s 715 mmHg 90%
06:00 +18°C° 0 mm 1 m/s 715 mmHg 89%
07:00 +20°C° 0 mm 1 m/s 714 mmHg 79%
08:00 +21°C° 0 mm 0 m/s 714 mmHg 68%
09:00 +23°C° 0 mm 0 m/s 714 mmHg 58%
10:00 +26°C° 0 mm 1 m/s 714 mmHg 55%
11:00 +27°C° 0 mm 2 m/s 714 mmHg 51%
12:00 +28°C° 0 mm 2 m/s 714 mmHg 48%
13:00 +27°C° 0.4 mm 2 m/s 714 mmHg 55%
14:00 +25°C° 0.4 mm 2 m/s 714 mmHg 62%
15:00 +24°C° 0.4 mm 2 m/s 714 mmHg 70%
16:00 +24°C° 0.1 mm 1 m/s 714 mmHg 71%
17:00 +24°C° 0.1 mm 1 m/s 714 mmHg 72%
18:00 +24°C° 0.1 mm 1 m/s 714 mmHg 73%
19:00 +22°C° 0.7 mm 1 m/s 714 mmHg 80%
20:00 +20°C° 0.7 mm 1 m/s 714 mmHg 86%
21:00 +18°C° 0.7 mm 1 m/s 714 mmHg 93%
22:00 +18°C° 0.4 mm 1 m/s 714 mmHg 94%
23:00 +18°C° 0.4 mm 1 m/s 714 mmHg 95%

Poimâine, 5 August, Joi

Timp Temperatura Precipitaţii Vânt Presiune Umiditate
00:00 +16°C° 0.4 mm 1 m/s 713 mmHg 95%
01:00 +16°C° 0 mm 1 m/s 713 mmHg 95%
02:00 +15°C° 0 mm 1 m/s 713 mmHg 95%
03:00 +15°C° 0 mm 1 m/s 713 mmHg 95%
04:00 +15°C° 0.1 mm 1 m/s 713 mmHg 95%
05:00 +16°C° 0.1 mm 1 m/s 713 mmHg 94%
06:00 +16°C° 0.1 mm 1 m/s 713 mmHg 94%
07:00 +17°C° 0.1 mm 0 m/s 713 mmHg 87%
08:00 +19°C° 0.1 mm 0 m/s 713 mmHg 79%
09:00 +20°C° 0.1 mm 0 m/s 713 mmHg 72%
10:00 +24°C° 0 mm 1 m/s 713 mmHg 64%
11:00 +25°C° 0 mm 1 m/s 712 mmHg 56%
12:00 +27°C° 0 mm 2 m/s 712 mmHg 48%
13:00 +26°C° 0.2 mm 2 m/s 712 mmHg 51%
14:00 +26°C° 0.2 mm 2 m/s 711 mmHg 54%
15:00 +25°C° 0.2 mm 2 m/s 711 mmHg 58%
16:00 +23°C° 0.9 mm 1 m/s 711 mmHg 68%
17:00 +21°C° 0.9 mm 1 m/s 711 mmHg 79%
18:00 +19°C° 0.9 mm 1 m/s 711 mmHg 90%
19:00 +18°C° 1 mm 1 m/s 712 mmHg 92%
20:00 +18°C° 1 mm 1 m/s 712 mmHg 94%
21:00 +15°C° 1 mm 0 m/s 712 mmHg 95%
22:00 +16°C° 0.3 mm 1 m/s 712 mmHg 96%
23:00 +15°C° 0.3 mm 1 m/s 712 mmHg 96%

6 August, Vineri

Timp Temperatura Precipitaţii Vânt Presiune Umiditate
00:00 +15°C° 0.3 mm 1 m/s 712 mmHg 96%
01:00 +15°C° 0 mm 1 m/s 712 mmHg 96%
02:00 +15°C° 0 mm 1 m/s 712 mmHg 95%
03:00 +15°C° 0 mm 2 m/s 712 mmHg 95%
04:00 +15°C° 0 mm 2 m/s 712 mmHg 94%
05:00 +15°C° 0 mm 2 m/s 713 mmHg 93%
06:00 +15°C° 0 mm 2 m/s 713 mmHg 93%
07:00 +16°C° 0.1 mm 1 m/s 713 mmHg 93%
08:00 +16°C° 0.1 mm 1 m/s 713 mmHg 93%
09:00 +16°C° 0.1 mm 1 m/s 713 mmHg 92%
10:00 +18°C° 0.4 mm 1 m/s 713 mmHg 91%
11:00 +18°C° 0.4 mm 1 m/s 714 mmHg 89%
12:00 +19°C° 0.4 mm 1 m/s 714 mmHg 88%
13:00 +19°C° 0.4 mm 1 m/s 714 mmHg 87%
14:00 +19°C° 0.4 mm 1 m/s 714 mmHg 86%
15:00 +20°C° 0.4 mm 1 m/s 714 mmHg 85%
16:00 +19°C° 0.5 mm 1 m/s 714 mmHg 87%
17:00 +19°C° 0.5 mm 1 m/s 714 mmHg 89%
18:00 +19°C° 0.5 mm 1 m/s 714 mmHg 90%
19:00 +18°C° 0.2 mm 1 m/s 714 mmHg 91%
20:00 +18°C° 0.2 mm 1 m/s 714 mmHg 93%
21:00 +16°C° 0.2 mm 1 m/s 715 mmHg 94%
22:00 +16°C° 0.1 mm 1 m/s 715 mmHg 94%
23:00 +15°C° 0.1 mm 1 m/s 715 mmHg 95%

7 August, Sâmbătă

Timp Temperatura Precipitaţii Vânt Presiune Umiditate
00:00 +15°C° 0.1 mm 1 m/s 715 mmHg 95%
01:00 +15°C° 0.2 mm 1 m/s 715 mmHg 95%
02:00 +15°C° 0.2 mm 1 m/s 715 mmHg 96%
03:00 +15°C° 0.2 mm 1 m/s 715 mmHg 96%
04:00 +15°C° 0.1 mm 1 m/s 715 mmHg 96%
05:00 +15°C° 0.1 mm 1 m/s 715 mmHg 96%
06:00 +15°C° 0.1 mm 1 m/s 715 mmHg 95%
07:00 +16°C° 0.2 mm 1 m/s 715 mmHg 94%
08:00 +16°C° 0.2 mm 1 m/s 715 mmHg 94%
09:00 +16°C° 0.2 mm 1 m/s 716 mmHg 93%
10:00 +18°C° 0.3 mm 1 m/s 716 mmHg 90%
11:00 +19°C° 0.3 mm 1 m/s 716 mmHg 88%
12:00 +19°C° 0.3 mm 1 m/s 716 mmHg 86%
13:00 +20°C° 0.1 mm 1 m/s 716 mmHg 78%
14:00 +21°C° 0.1 mm 1 m/s 715 mmHg 71%
15:00 +23°C° 0.1 mm 1 m/s 715 mmHg 64%
16:00 +20°C° 0 mm 0 m/s 715 mmHg 67%
17:00 +20°C° 0 mm 0 m/s 715 mmHg 70%
18:00 +20°C° 0 mm 0 m/s 715 mmHg 72%
19:00 +18°C° 0 mm 0 m/s 715 mmHg 78%
20:00 +18°C° 0 mm 1 m/s 715 mmHg 84%
21:00 +16°C° 0 mm 1 m/s 715 mmHg 90%
22:00 +15°C° 0 mm 1 m/s 715 mmHg 91%
23:00 +15°C° 0 mm 1 m/s 715 mmHg 91%

8 August, Duminică

Timp Temperatura Precipitaţii Vânt Presiune Umiditate
00:00 +15°C° 0 mm 1 m/s 715 mmHg 91%
01:00 +14°C° 0 mm 1 m/s 715 mmHg 91%
02:00 +14°C° 0 mm 1 m/s 715 mmHg 91%
03:00 +14°C° 0 mm 1 m/s 715 mmHg 91%
04:00 +15°C° 0 mm 1 m/s 715 mmHg 88%
05:00 +15°C° 0 mm 1 m/s 715 mmHg 86%
06:00 +16°C° 0 mm 1 m/s 716 mmHg 83%
07:00 +16°C° 0.1 mm 1 m/s 716 mmHg 83%
08:00 +16°C° 0.1 mm 0 m/s 716 mmHg 83%
09:00 +17°C° 0.1 mm 0 m/s 716 mmHg 83%
10:00 +17°C° 0 mm 0 m/s 716 mmHg 83%
11:00 +17°C° 0 mm 0 m/s 716 mmHg 84%
12:00 +17°C° 0 mm 0 m/s 716 mmHg 85%
13:00 +18°C° 0 mm 0 m/s 716 mmHg 79%
14:00 +22°C° 0 mm 1 m/s 716 mmHg 72%
15:00 +23°C° 0 mm 1 m/s 716 mmHg 66%
16:00 +22°C° 0 mm 1 m/s 716 mmHg 70%
17:00 +22°C° 0 mm 1 m/s 715 mmHg 75%
18:00 +19°C° 0 mm 0 m/s 715 mmHg 80%
19:00 +20°C° 0 mm 1 m/s 716 mmHg 85%
20:00 +18°C° 0 mm 1 m/s 716 mmHg 89%
21:00 +16°C° 0 mm 1 m/s 716 mmHg 93%
22:00 +15°C° 0 mm 1 m/s 715 mmHg 93%
23:00 +15°C° 0 mm 1 m/s 715 mmHg 94%
Arată mai mult

Formular de consimțământ

Meteoprog și furnizorii noștri de servicii pot stoca și accesa date personale, precum cookies, identificatori de dispozitiv sau alte tehnologii similare pe dispozitivul dumneavoastră și procesa astfel de date pentru a personaliza conținutul și reclamele, dar și pentru a oferi caracteristici de social media și pentru a analiza traficul.

  • Stocarea și/sau accesarea informațiilor pe dispozitivul dumneavoastră

    Cookies, identificatori de dispozitiv sau alte informații pot fi stocate sau accesate pe dispozitiv în scopurile indicate mai sus.

  • Reclame și conținut personalizat, evaluarea reclamelor și a conținutului, informații despre audiențe și dezvoltarea produselor

    Reclamele și conținutul pot fi personalizate pe baza unui profil. Pot fi adăugate date suplimentare pentru a personaliza mai bine reclamele și conținutul. Performanța reclamelor și conținutului poate fi măsurată. Pot fi obținute informații despre utilizatorii care au văzut reclamele și conținutul. Aceste date pot fi utilizate pentru a dezvolta sau îmbunătăți experiența utilizatorilor, sistemele și software-ul.

Dând clic pe ‘Sunt de acord’, permiteți utilizarea cookie-urilor menționate, a identificatorilor de dispozitiv, balizelor web sau altor tehnologii similare. Setările pot fi modificate din browser-ul dispozitivului dumneavoastră.

În anumite scopuri, interesele legitime pot prima asupra consimțământului. Puteți citi mai multe informații în acest sens în Politica privind Confidențialitatea Datelor și Cookie.